This is the latest recevied weather packets stored in our database for station/object N3LF. If no packets are shown the sender has not sent any weather packets the latest 1 day(s).
| Time | Temp. | Humidity | Pressure | Rain* | Wind** | Luminosity | Snow |
|---|---|---|---|---|---|---|---|
| 1778048789 | 16.67° C | 99% | 1009.4 hPa | 0 mm | - | 0 W/m² | - |
| 1778048486 | 17.78° C | 99% | 1009.2 hPa | 6.1 mm | - | 0 W/m² | - |
| 1778047578 | 17.78° C | 99% | 1009.2 hPa | 30.73 mm | - | 0 W/m² | - |
| 1778047274 | 17.78° C | 99% | 1008.9 hPa | 10.67 mm | - | 0 W/m² | - |
| 1778046972 | 18.33° C | 99% | 1009.2 hPa | 0 mm | - | 0 W/m² | - |
| 1778046061 | 18.33° C | 97% | 1008.8 hPa | 1.78 mm | - | 0 W/m² | - |
| 1778045759 | 18.33° C | 97% | 1008.7 hPa | 0 mm | - | 0 W/m² | - |
| 1778044853 | 18.89° C | 93% | 1008.6 hPa | 4.83 mm | - | 0 W/m² | - |
| 1778044246 | 20.56° C | 86% | 1008.8 hPa | 0 mm | - | 0 W/m² | - |
| 1778043944 | 20.56° C | 84% | 1008.7 hPa | 0 mm | - | 0 W/m² | - |
| 1778042429 | 20° C | 84% | 1008.8 hPa | 0 mm | - | 0 W/m² | - |
| 1778042126 | 20° C | 85% | 1009 hPa | 0 mm | - | 0 W/m² | - |
| 1778041523 | 20° C | 86% | 1008.9 hPa | 0 mm | - | 0 W/m² | - |
| 1778041221 | 19.44° C | 86% | 1009 hPa | 0 mm | - | 0 W/m² | - |
| 1778040616 | 19.44° C | 87% | 1009.3 hPa | 0 mm | - | 0 W/m² | - |
| 1778040314 | 18.89° C | 88% | 1009.2 hPa | 0 mm | - | 0 W/m² | - |
| 1778039403 | 18.89° C | 89% | 1009.3 hPa | 0 mm | - | 0 W/m² | - |
| 1778039101 | 18.89° C | 90% | 1009.5 hPa | 0 mm | - | 0 W/m² | - |
| 1778038797 | 18.89° C | 90% | 1009.5 hPa | 0 mm | - | 0 W/m² | - |
| 1778038495 | 18.33° C | 90% | 1009.3 hPa | 0 mm | - | 0 W/m² | - |
| 1778038191 | 18.33° C | 91% | 1009.5 hPa | 0 mm | - | 0 W/m² | - |
| 1778037889 | 18.33° C | 91% | 1009.5 hPa | 0 mm | - | 0 W/m² | - |
| 1778037585 | 18.33° C | 91% | 1009.5 hPa | 0 mm | - | 0 W/m² | - |
| 1778037283 | 18.33° C | 91% | 1009.6 hPa | 0 mm | - | 0 W/m² | - |
| 1778036980 | 18.33° C | 92% | 1009.6 hPa | 0 mm | - | 0 W/m² | - |
* Rain latest hour (hover to see other rain measurements)
** Current wind speed in m/s (hover to see current wind gust speed)